Location: Buckenweiler
(49.0667°N, 10.2500°E)
Time: 18:23:59
(UTC+00:00)

Gbstr 26 Del rocket - Pass Details

Date: 18 January 2026
Orbit: 490 x 1217 km, 51.8° (Epoch: 18 February)

Event Time Altitude Azimuth Distance (km) Brightness Sun altitude
Exits shadow 06:16:01 - 266° (W) 3,424 6.3 -8.1°
Reaches altitude 10° 06:17:14 10° 267° (W) 2,997 6.0 -7.9°
Maximum altitude 06:24:30 72° 352° (N) 1,045 4.1 -6.8°
Drops below altitude 10° 06:30:31 10° 77° (ENE) 2,508 7.1 -5.9°
Sets 06:32:49 0° 80° (E) 3,336 7.8 -5.6°
